Regional Weather Roundup
Issued by NWS Goodland, KS

Home | Current Version | Previous Version | Text Only | Print | Product List | Glossary Off
Versions: 1 2 3 4 5 6 7 8 9 10 11 12 13 14 15 16 17 18 19 20 21 22 23 24 25 26 27 28 29 30 31 32 33 34 35 36 37 38 39 40 41 42 43 44 45 46 47 48 49 50

000
ASUS43 KGLD 142059
RWRGLD

GOODLAND FORECAST AREA HOURLY WEATHER ROUNDUP
NATIONAL WEATHER SERVICE GOODLAND KS
300 PM MDT SUN SEP 14 2014

...OFFICIAL OBSERVATIONS...

CITY           SKY/WX    TMP DP  RH WIND       PRES   REMARKS
GOODLAND KS    SUNNY     69  55  60 S13       30.03F
HILL CITY KS   CLOUDY    76  57  51 SE10      30.02F
IMPERIAL NEB   MOSUNNY   76  56  49 S17G24    29.99F
MCCOOK NEB     PTSUNNY   71  55  56 S15       30.00F
AKRON CO       SUNNY     85  32  15 S9        30.00F
BURLINGTON CO  SUNNY     78  55  44 S13       30.03F
LIMON CO       SUNNY     84  26  12 NW7       30.08F
$$

...UNOFFICIAL OBSERVATIONS...

CITY           SKY/WX    TMP DP  RH WIND       PRES   REMARKS
COLBY KS       SUNNY     75  61  60 SE10      30.03F
NORTON KS      CLOUDY    70  52  52 SE15      30.03F
SHARON SPRINGS   N/A     74  60  60 SE7         N/A
WAKEENEY KS      N/A     79  52  39 MISG        N/A
TRENTON NEB      N/A     75  32  20 S20         N/A
KIT CARSON CO    N/A     85  50  29 CALM        N/A
YUMA CO          N/A     79  56  45 SE7         N/A
$$


USA.gov is the U.S. government's official web portal to all federal, state and local government web resources and services.